カタログに戻る

ONEWEB-0415

運用中通信PO
NORAD 51624·PAYLOAD·🇬🇧 United Kingdom

打ち上げ Feb 10, 2022 から Guiana Space Centre

Loading…

次のパス (今後24時間)

TLE

最新Source: CelesTrak SupGP

元期: Sep 15, 2026, 01:25 UTC

1 51624C 22012C   26258.05918241 -.00000355  00000+0 -10181-2 0  2583
2 51624  87.8900  18.3746 0001405 108.8239   3.2947 13.10366335    19

AllMySatでONEWEB-0415をリアルタイム追跡

Download on the App Store